Wind_Speed
10 9 9 9 9 9 8 8 9 10 10 11 12 12 11 12 12 13 13 13 13 13 13 13 13 14 13 13 13 12 12 11 11 11 11 11 11 11 11 12 12 12 11
9 9 9 9 9 9 9 10 10 10 10 11 11 12 12 12 12 12 12 13 13 12 12 12 12 13 13 12 12 12 11 11 12 11 12 12 12 12 13 13 13 13 12
9 9 9 9 9 9 9 10 10 11 11 11 11 11 12 12 11 12 12 12 12 12 12 12 12 12 12 11 11 12 12 12 12 12 12 12 12 12 13 13 14 14 14
10 10 10 10 9 9 9 10 11 11 11 11 11 11 12 12 11 12 11 12 12 12 12 11 11 12 12 12 12 11 11 12 12 12 12 13 13 13 14 14 14 14 14
10 10 10 11 10 10 10 10 11 11 11 11 11 11 12 12 12 12 11 11 11 11 11 11 12 12 12 13 12 12 12 12 12 12 12 13 13 13 13 14 14 14 15
11 11 10 10 11 11 10 10 11 11 11 10 10 10 10 11 11 10 10 10 11 11 11 11 12 12 13 13 13 13 13 13 13 12 12 12 12 12 13 13 14 14 14
11 11 11 10 10 10 10 10 10 10 10 9 9 9 10 10 10 10 10 10 10 10 11 11 11 11 11 12 13 13 13 13 13 13 12 12 12 13 13 13 13 13 13
11 11 11 10 10 9 9 10 10 10 9 9 8 9 9 9 9 9 9 9 10 10 10 10 10 10 11 11 11 12 13 13 13 13 12 12 13 13 13 13 13 13 13
12 11 11 10 9 9 9 9 10 10 9 9 9 9 10 10 10 10 9 10 10 10 10 10 10 10 10 10 11 11 12 12 13 13 13 13 13 13 13 13 13 13 14
12 11 11 11 10 10 10 10 10 10 10 10 10 10 10 11 11 11 10 11 11 11 11 10 10 10 11 10 10 11 11 12 12 13 13 13 14 14 14 14 14 14 14
12 12 11 11 11 11 11 11 11 10 10 10 10 11 11 11 11 11 11 11 11 12 12 12 11 11 10 11 10 11 11 11 11 12 13 14 14 13 13 14 14 14 14
13 12 12 12 12 12 11 11 12 11 11 11 11 11 11 12 12 12 12 12 12 12 12 12 12 11 11 11 11 11 12 12 12 12 13 14 14 13 13 13 13 14 14
14 14 13 13 13 13 13 13 13 12 12 12 12 12 12 12 12 12 12 12 12 12 12 12 12 12 12 12 11 12 13 13 12 13 13 13 13 13 13 13 13 13 14
16 15 15 14 14 14 15 15 14 14 13 13 13 13 13 13 13 13 13 13 13 13 14 14 14 13 13 12 12 13 14 14 13 13 13 13 13 12 13 13 13 14 14
17 17 17 16 16 16 16 16 16 15 15 15 15 15 15 15 14 14 14 15 14 14 14 15 15 15 14 13 13 13 14 14 14 13 13 13 12 12 13 13 14 15 15
18 18 18 18 17 17 17 16 16 17 17 16 17 16 16 16 15 16 16 16 15 15 14 15 15 15 15 14 14 14 14 14 14 13 13 13 13 13 14 14 14 14 15
20 20 20 19 19 18 17 17 18 18 17 17 17 18 17 18 17 17 17 16 16 16 16 16 16 16 16 16 15 15 14 14 14 13 13 13 14 14 14 14 15 14 14
21 21 20 20 20 19 19 19 19 18 18 18 18 18 18 18 18 17 17 17 17 17 17 17 16 16 16 16 16 15 15 15 14 15 14 14 14 15 14 14 14 14 14
22 22 21 21 21 21 20 19 19 19 19 19 19 18 18 18 18 18 18 18 18 18 18 18 17 17 17 17 17 17 16 16 16 16 16 16 16 16 16 15 16 15 15
22 21 21 21 21 20 21 21 21 20 20 20 20 20 20 19 19 19 19 18 19 19 19 19 18 18 18 18 17 17 17 17 18 18 18 18 18 18 18 17 17 18 18
21 21 21 21 21 21 21 21 22 22 21 21 20 20 21 21 21 21 21 20 20 20 20 20 20 19 19 19 19 18 18 18 18 19 20 20 20 20 20 19 20 20 20
21 22 22 21 21 21 21 21 22 22 22 22 21 22 22 22 21 21 22 21 21 21 21 21 21 21 20 20 20 20 20 20 20 20 21 21 21 21 22 21 21 22 22
21 22 22 22 22 21 21 21 22 22 23 23 23 23 23 23 23 23 23 23 23 23 23 23 23 22 22 22 22 21 22 22 22 22 22 22 22 23 23 23 23 23 22
22 22 21 21 22 22 22 23 23 23 23 24 24 24 24 24 24 24 24 24 23 23 24 24 24 24 24 24 24 24 24 24 24 24 25 25 25 25 25 25 24 24 24
23 23 22 22 22 23 24 24 24 24 24 24 24 24 24 24 25 25 25 25 25 25 25 25 25 26 26 26 26 27 27 27 27 27 27 27 27 27 26 26 26 26 26
24 24 24 23 23 23 23 24 25 25 25 25 25 24 24 25 25 25 26 26 26 26 26 26 27 27 28 28 28 28 28 28 28 28 29 29 29 29 28 28 28 27 27
Wind_Direction
290 291 285 283 276 274 274 271 260 258 255 254 255 257 259 256 252 252 253 254 255 254 256 259 255 251 250 251 253 257 257 256 257 260 261 262 262 263 260 260 262 265 266
292 291 287 283 278 271 269 266 262 257 255 257 259 262 262 260 259 257 258 257 257 258 258 258 255 253 252 254 257 257 258 258 258 259 261 263 264 263 260 260 262 264 267
293 292 290 286 280 272 267 264 265 264 264 262 261 261 261 262 262 255 257 259 259 260 260 261 261 258 255 256 259 256 258 259 259 261 263 265 266 265 263 262 263 264 267
294 293 291 286 282 276 270 269 270 269 269 265 263 261 260 260 261 260 259 262 262 258 259 260 260 258 257 255 256 257 260 263 263 264 265 267 267 266 265 266 266 267 267
295 294 292 289 285 278 273 270 271 270 270 267 264 263 261 258 259 260 262 261 259 258 257 257 259 257 256 257 258 260 261 264 267 267 266 266 266 267 266 267 268 269 269
296 295 293 290 287 284 279 274 273 273 269 267 265 263 258 256 257 260 262 262 261 261 257 255 258 258 258 259 259 260 260 264 267 267 266 266 266 268 270 270 272 273 272
297 297 296 292 287 283 279 276 275 277 268 267 265 260 259 256 256 259 263 263 263 262 261 262 264 262 261 261 260 261 262 263 266 266 268 267 268 270 272 273 273 275 276
297 297 296 295 290 286 281 277 276 275 272 271 268 263 261 261 260 265 267 267 267 267 267 267 268 265 262 262 261 261 261 262 265 268 270 269 270 271 270 271 272 273 276
294 294 296 293 288 284 283 282 281 277 274 269 265 264 260 259 260 261 266 269 269 267 267 267 268 264 261 261 260 262 262 262 266 268 269 269 269 268 267 270 270 271 274
294 294 292 291 286 283 282 280 282 280 275 269 265 262 261 262 260 260 262 266 269 269 267 266 267 264 263 260 261 262 263 265 266 266 267 269 269 268 268 269 270 272 273
291 292 289 288 287 286 283 279 280 279 275 269 267 265 263 264 264 263 264 265 265 266 269 268 267 265 267 266 261 261 264 263 265 269 271 274 272 272 272 271 271 272 273
288 288 288 287 284 283 282 279 278 277 273 270 269 269 269 268 267 267 267 267 267 266 267 267 267 266 270 269 266 264 266 267 269 273 274 276 275 275 274 271 271 273 275
285 284 285 286 283 279 280 278 277 275 272 271 271 270 270 271 270 270 268 268 267 266 266 267 268 270 271 271 272 267 269 273 272 274 277 278 276 275 274 274 275 275 276
283 281 282 282 282 280 279 277 275 272 270 271 271 270 270 271 271 271 269 268 268 266 265 265 266 268 268 270 272 272 269 271 274 274 276 277 274 273 274 275 278 279 278
280 278 279 279 279 280 279 274 272 270 268 268 269 268 268 268 268 268 268 269 269 268 265 265 265 266 266 268 273 276 274 271 275 274 272 272 271 272 272 275 278 281 281
277 276 277 277 277 278 278 273 272 270 269 269 268 266 267 267 267 266 268 268 269 268 265 264 265 263 265 269 273 274 273 271 271 269 268 268 270 273 273 276 280 282 282
276 274 274 275 277 276 274 273 273 269 268 268 268 267 268 267 267 267 266 267 267 268 269 266 265 265 267 269 271 271 270 271 269 268 268 267 269 271 272 276 280 282 284
276 273 272 274 274 273 273 272 271 268 266 266 266 266 266 266 266 266 265 266 265 266 267 267 267 266 267 269 270 269 269 269 269 268 266 267 268 269 271 273 277 281 283
275 274 273 273 274 271 269 269 267 266 266 264 264 264 265 266 266 264 264 264 263 264 266 266 268 268 269 270 269 269 269 268 268 266 264 266 268 269 271 273 275 277 278
276 274 274 275 275 274 269 267 266 264 264 264 264 264 264 265 265 265 265 266 265 265 265 266 267 269 270 270 270 269 270 270 267 266 266 266 267 268 271 273 275 276 277
278 276 275 275 274 275 272 268 266 264 263 263 264 264 263 264 263 263 264 265 265 265 266 266 267 268 268 269 268 268 269 270 271 270 267 267 267 268 270 272 274 275 276
278 276 276 276 275 274 272 272 270 266 265 265 263 262 262 262 262 263 265 265 265 265 266 266 267 266 267 266 267 268 268 269 271 271 269 269 269 270 271 273 275 276 277
279 276 277 275 275 274 273 273 272 269 266 265 264 264 262 261 260 262 263 264 264 265 266 266 266 266 266 267 268 269 270 271 271 269 270 271 271 271 272 275 276 277 278
277 276 278 275 274 273 274 273 272 270 267 266 265 265 265 263 262 263 264 264 265 265 266 266 266 266 267 268 269 270 271 271 271 271 270 271 271 271 272 275 276 276 278
276 277 278 275 273 273 272 273 272 271 270 267 265 264 264 264 264 264 265 265 265 265 266 267 268 268 267 267 269 270 271 272 271 271 271 271 271 272 272 273 274 276 277
277 277 277 276 275 273 272 273 273 273 270 267 265 265 265 265 266 266 267 267 266 266 267 267 268 268 268 269 270 271 272 272 273 273 272 271 271 270 270 272 273 274 276
Height
5838 5838 5838 5838 5838 5838 5838 5838 5838 5838 5839 5840 5840 5841 5842 5843 5844 5844 5845 5846 5846 5847 5848 5848 5849 5850 5851 5852 5853 5854 5854 5855 5856 5857 5858 5858 5859 5859 5860 5861 5861 5862 5862
5837 5837 5837 5836 5836 5836 5836 5837 5837 5837 5837 5838 5838 5839 5839 5840 5841 5841 5842 5843 5844 5845 5845 5846 5847 5848 5848 5849 5850 5851 5852 5853 5854 5854 5855 5856 5856 5857 5857 5858 5859 5859 5860
5835 5835 5835 5834 5834 5834 5834 5835 5835 5835 5835 5836 5836 5837 5837 5838 5838 5839 5840 5841 5841 5842 5843 5843 5844 5845 5846 5847 5848 5849 5850 5850 5851 5852 5852 5853 5854 5854 5855 5855 5856 5856 5857
5834 5833 5833 5833 5832 5832 5832 5832 5833 5833 5833 5833 5834 5834 5835 5836 5836 5837 5838 5838 5839 5839 5840 5841 5842 5843 5843 5844 5845 5846 5847 5848 5848 5849 5850 5850 5851 5851 5852 5852 5853 5853 5854
5832 5832 5831 5831 5830 5830 5830 5830 5830 5831 5831 5831 5832 5832 5832 5833 5834 5834 5835 5835 5836 5837 5837 5838 5839 5840 5841 5842 5843 5843 5844 5845 5845 5846 5847 5847 5848 5848 5849 5849 5850 5850 5851
5830 5830 5829 5829 5828 5828 5828 5828 5828 5828 5828 5829 5829 5829 5830 5830 5831 5832 5832 5833 5833 5834 5835 5835 5836 5837 5838 5839 5840 5841 5841 5842 5843 5843 5844 5844 5845 5845 5846 5846 5847 5847 5847
5828 5828 5827 5827 5826 5826 5825 5825 5826 5826 5826 5826 5827 5827 5827 5828 5829 5829 5830 5830 5831 5831 5832 5833 5834 5834 5835 5836 5837 5837 5838 5839 5840 5840 5841 5841 5842 5842 5843 5843 5843 5844 5844
5826 5826 5825 5824 5824 5823 5823 5823 5823 5824 5824 5824 5825 5825 5826 5827 5826 5827 5827 5828 5828 5829 5830 5830 5831 5832 5832 5833 5834 5834 5835 5836 5836 5837 5837 5838 5838 5839 5839 5840 5840 5840 5841
5824 5823 5823 5822 5822 5821 5821 5821 5821 5821 5821 5822 5822 5823 5823 5824 5824 5825 5825 5825 5826 5826 5827 5828 5828 5829 5829 5830 5831 5831 5832 5833 5833 5834 5834 5835 5835 5836 5836 5836 5837 5837 5837
5821 5821 5821 5820 5820 5820 5819 5819 5819 5819 5819 5819 5820 5820 5821 5821 5822 5823 5823 5823 5823 5824 5824 5825 5826 5826 5827 5827 5828 5828 5829 5830 5830 5830 5831 5831 5832 5832 5832 5833 5833 5833 5833
5819 5818 5818 5818 5817 5817 5817 5817 5817 5817 5817 5817 5817 5817 5818 5818 5819 5820 5820 5821 5821 5821 5821 5822 5823 5823 5824 5825 5825 5825 5826 5827 5827 5827 5828 5828 5828 5828 5829 5829 5829 5829 5830
5816 5816 5815 5815 5815 5815 5814 5814 5814 5814 5814 5814 5815 5815 5815 5815 5816 5817 5817 5818 5818 5818 5818 5819 5820 5821 5821 5822 5822 5822 5823 5823 5824 5824 5824 5824 5824 5825 5825 5825 5825 5825 5826
5813 5813 5813 5812 5812 5812 5811 5811 5811 5811 5811 5812 5812 5812 5812 5813 5813 5813 5814 5814 5815 5815 5816 5816 5817 5817 5818 5819 5819 5819 5820 5820 5820 5820 5821 5821 5821 5821 5821 5821 5822 5822 5822
5810 5809 5809 5809 5809 5808 5808 5808 5808 5808 5808 5808 5809 5809 5809 5809 5810 5810 5810 5811 5811 5812 5812 5813 5813 5814 5815 5815 5816 5816 5816 5816 5817 5817 5817 5817 5817 5817 5818 5818 5818 5818 5818
5806 5805 5805 5805 5805 5804 5804 5804 5804 5804 5805 5805 5805 5805 5805 5806 5806 5806 5807 5807 5808 5808 5809 5809 5810 5810 5811 5812 5812 5812 5812 5813 5813 5813 5813 5813 5814 5814 5814 5814 5814 5814 5813
5801 5801 5800 5800 5800 5800 5800 5799 5800 5800 5800 5801 5801 5801 5801 5802 5802 5802 5803 5803 5804 5804 5805 5806 5806 5807 5807 5808 5809 5809 5809 5809 5809 5810 5810 5810 5810 5810 5811 5810 5810 5809 5808
5795 5796 5795 5795 5795 5795 5795 5795 5795 5795 5796 5796 5796 5797 5797 5797 5798 5798 5798 5799 5799 5800 5801 5802 5802 5803 5803 5804 5804 5805 5805 5805 5806 5806 5806 5806 5806 5806 5807 5806 5806 5805 5804
5790 5790 5790 5790 5790 5790 5790 5790 5790 5790 5791 5791 5792 5792 5792 5793 5793 5794 5794 5795 5795 5796 5796 5797 5798 5798 5799 5799 5800 5800 5801 5801 5802 5802 5802 5802 5802 5802 5802 5802 5802 5801 5800
5783 5783 5784 5784 5784 5784 5784 5784 5784 5785 5785 5786 5787 5787 5788 5788 5788 5789 5790 5790 5791 5791 5792 5793 5793 5794 5794 5795 5795 5796 5796 5797 5797 5797 5797 5798 5798 5798 5798 5798 5797 5797 5797
5777 5777 5777 5778 5778 5778 5778 5778 5779 5779 5780 5781 5781 5782 5783 5783 5784 5784 5785 5785 5786 5787 5787 5788 5789 5789 5790 5790 5790 5791 5791 5791 5792 5792 5792 5793 5793 5793 5793 5793 5793 5792 5792
5771 5771 5771 5772 5772 5772 5772 5772 5772 5773 5774 5775 5775 5776 5776 5777 5778 5779 5779 5780 5781 5781 5782 5783 5783 5784 5785 5785 5785 5785 5786 5786 5787 5787 5787 5787 5788 5788 5788 5787 5787 5787 5786
5765 5765 5765 5766 5766 5766 5766 5766 5766 5766 5767 5768 5769 5770 5770 5771 5772 5773 5773 5774 5775 5775 5776 5777 5777 5778 5779 5779 5779 5780 5780 5781 5781 5782 5781 5781 5782 5782 5782 5781 5781 5781 5780
5759 5759 5759 5760 5760 5760 5760 5760 5760 5760 5760 5761 5762 5763 5764 5764 5765 5766 5767 5768 5768 5769 5770 5771 5771 5772 5772 5773 5773 5774 5774 5774 5775 5775 5774 5775 5775 5775 5775 5774 5774 5774 5773
5753 5753 5753 5753 5754 5754 5753 5753 5753 5753 5754 5754 5755 5756 5757 5758 5758 5759 5760 5761 5762 5762 5763 5763 5764 5765 5765 5766 5766 5766 5766 5767 5767 5767 5767 5767 5768 5768 5768 5768 5767 5767 5766
5747 5747 5747 5747 5747 5747 5747 5746 5746 5746 5747 5747 5748 5749 5750 5750 5751 5752 5753 5754 5755 5755 5755 5756 5757 5757 5758 5758 5758 5758 5758 5758 5759 5759 5759 5759 5759 5760 5760 5760 5760 5759 5758
5740 5740 5740 5740 5740 5740 5740 5739 5739 5739 5740 5740 5741 5742 5742 5743 5744 5744 5745 5746 5747 5747 5748 5748 5749 5749 5750 5750 5750 5750 5750 5750 5750 5750 5750 5749 5750 5750 5751 5751 5751 5751 5750